Tracking 19477 objects as of 16-Jan-2019
HD Live streaming from Space Station
objects crossing your sky now

WNISAT 1

Track WNISAT 1 now!
10-day predictions
WNISAT 1 is classified as:


NORAD ID: 39423
Int'l Code: 2013-066H
Perigee: 597.6 km
Apogee: 848.4 km
Inclination: 97.8 °
Period: 99.1 minutes
Semi major axis: 7093 km
RCS: Unknown
Launch date: November 21, 2013
Source: Japan (JPN)
Launch site: Orenburg, Russia (OREN)

Uplink (MHz):
Downlink (MHz): 467.674
Beacon (MHz):
Mode:
Call sign:
Status:

aabbcc
Your satellite tracking list
Your tracking list is empty




NASA's NSSDC Master Catalog

Two Line Element Set (TLE):
1 39423U 13066H   19015.86279967  .00000054  00000-0  19966-4 0  9991
2 39423  97.7595 328.8665 0176810  73.2968 288.7566 14.53006942273111
Source of the keplerian elements: AFSPC